NOAA 16 DEB

Satellite information

Favourite Embed

Satellite Type and Status

DEBRISIN ORBIT

Key statistics

Satellite NOAA 16 DEB at a glance.

Uptime

9116

Days in orbit

Revolutions

≈ 14.3

Per day

Orbit

SSO

Sun Synchronous Orbit

Inclination

98.8

Latest

Satellite identification and parameters

Extended collection of information and parameters for NOAA 16 DEB.

Object identification

Identified? True

Debris? True

Object name: NOAA 16 DEB

International designator: 2000-055CK

Object number (NORAD): 41152

Object ID (CCSDS): 41152

Country: UNITED STATES OF AMERICA (US)

Current information (Y/N): Y

RCS size: SMALL

Orbital parameters

Period: 100.42 minutes

Inclination: 98.8232 deg

SMA: 7156.599 km

Apoapsis: 785.431 km

Periapsis: 771.496 km

RAAN: 1.6213 deg

Eccentricy: 0.00097355

Argument of periapsis: 290.4502 deg

Mean anomaly: 69.5637 deg

Mean motion: 14.33978897 rev/day

Mean motion (dot): 0.00006784 rev/day2

B* drag term: 0.0024442245 1/REarth

Two-line elements (TLE)

Creation date: Sept. 6, 2025, 2:09 a.m.

Reference frame: TEME

Reference center: EARTH

Epoch: Sept. 5, 2025, 6:05 p.m. UTC

TLE line 0: 0 NOAA 16 DEB

TLE line 1: 1 41152U 00055CK 25248.75361254 .00006784 00000-0 24442-2 0 9990

TLE line 2: 2 41152 98.8232 1.6213 0009736 290.4502 69.5637 14.33978897505844

Live tracking on map

Real-time ground track for satellite NOAA 16 DEB.

In-orbit conjunctions

A list of the most updated potential collisions computed for object NOAA 16 DEB.

Target Orbit TCA Probability of collision Miss distance Type
FENGYUN 1C DEB SSO 2025-07-25 05:40:55 0.0001034335 60.0 (m) DEBRIS
RESURS O1-N4 SSO 2024-05-27 02:17:23 0.0002175115 199.0 (m) PAYLOAD

Associated space launch

The NOAA K, L and M POES satellites begin the fifth generation of improved environmental monitoring in support of NOAA missions. The instrument payload has significant improvements and additions/deletions. The instrument changes have effected the spacecraft subsystems and data formats.

NOAA 16 DEB was lifted into orbit during the mission ‘Titan II SLV | NOAA 16’, on board a Titan II SLV space rocket.

The launch took place on Sept. 21, 2000, 10:22 a.m. from Space Launch Complex 4W.

For more information about the launch, click the button.

Launch to space Titan II SLV | NOAA 16
Titan II SLV | NOAA 16

Agency: N/A

Status: Launch Successful

Launch date: Sept. 21, 2000, 10:22 a.m. UTC

Rocket: Titan II SLV

Launch pad: Space Launch Complex 4W

Location: Vandenberg SFB, CA, USA

...

Latest news about this satellite

There are no fresh news available about this satellite. Check back as we update our databases every day.


Newsletter sign-up

Weekly statistics, charts and insights to help you stay on top of the space industry.